KC8RFE-2 Weather Reports


time (UTC)temp
F
wind
direction
speed
knots
gust
knots
rain 1hr
in
rain 24hr
in
rain mn
in
humidity
%
barometer
mb
20260906113702 67 94 0.9 1.7 0.00 0.00 0.00 9 991.4
20260906113135 67 88 0.9 1.7 0.00 0.00 0.00 9 991.4
20260906112702 67 86 0.0 1.7 0.00 0.00 0.00 9 991.4
20260906112133 67 95 0.9 2.6 0.00 0.00 0.00 9 991.2
20260906111702 67 100 0.9 1.7 0.00 0.00 0.00 9 991.2
20260906111202 67 102 0.9 1.7 0.00 0.00 0.00 9 991.2
20260906110702 67 86 0.9 2.6 0.00 0.00 0.00 9 991.2
20260906110134 67 95 0.9 1.7 0.00 0.00 0.00 9 991.1
20260906105702 68 102 0.9 1.7 0.00 0.00 0.00 9 990.9
20260906105135 68 79 0.9 1.7 0.00 0.00 0.00 9 990.9
20260906104702 68 80 0.9 2.6 0.00 0.00 0.00 9 990.7
20260906104134 68 76 0.9 1.7 0.00 0.00 0.00 9 990.7
20260906103702 68 92 0.9 1.7 0.00 0.00 0.00 9 990.7
20260906103134 68 90 0.9 1.7 0.00 0.00 0.00 9 990.7
20260906102702 68 80 0.9 1.7 0.00 0.00 0.00 9 990.7
20260906102202 69 90 0.9 0.9 0.00 0.00 0.00 9 990.6
20260906101702 69 85 0.9 1.7 0.00 0.00 0.00 9 990.6
20260906101202 69 98 0.9 1.7 0.00 0.00 0.00 9 990.6
20260906100702 69 86 1.7 3.5 0.00 0.00 0.00 9 990.6
20260906100134 69 93 0.9 1.7 0.00 0.00 0.00 9 990.6
20260906095702 69 95 1.7 3.5 0.00 0.00 0.00 9 990.6
20260906095202 69 95 0.9 2.6 0.00 0.00 0.00 9 990.6
20260906094702 69 95 1.7 2.6 0.00 0.00 0.00 9 990.7
20260906094136 69 100 0.9 1.7 0.00 0.00 0.00 9 990.7
20260906093702 69 66 1.7 3.5 0.00 0.00 0.00 9 990.6
20260906093202 69 86 1.7 3.5 0.00 0.00 0.00 9 990.6
20260906092702 69 65 0.9 2.6 0.00 0.00 0.00 9 990.6
20260906092134 70 81 0.9 1.7 0.00 0.00 0.00 9 990.7
20260906091703 70 88 0.9 1.7 0.00 0.00 0.00 9 990.7
20260906091203 70 82 0.9 2.6 0.00 0.00 0.00 9 990.7
20260906090703 70 103 0.9 2.6 0.00 0.00 0.00 9 990.7
20260906090136 70 92 0.9 2.6 0.00 0.00 0.00 9 990.7
20260906085703 70 89 1.7 3.5 0.00 0.00 0.00 9 990.7
20260906085135 70 95 0.9 1.7 0.00 0.00 0.00 9 990.7
20260906084703 70 82 1.7 2.6 0.00 0.00 0.00 9 990.6
20260906084136 70 97 0.9 2.6 0.00 0.00 0.00 9 990.6
20260906083703 70 53 0.9 2.6 0.00 0.00 0.00 9 990.6
20260906083136 70 87 0.9 2.6 0.00 0.00 0.00 9 990.6
20260906082703 70 65 0.9 2.6 0.00 0.00 0.00 9 990.6
20260906082203 70 76 0.9 1.7 0.00 0.00 0.00 9 990.4
20260906081703 70 79 0.9 2.6 0.00 0.00 0.00 9 990.4
20260906081202 71 114 0.9 1.7 0.00 0.00 0.00 9 990.2
20260906080702 71 106 0.9 1.7 0.00 0.00 0.00 9 990.2
20260906080136 71 86 0.0 1.7 0.00 0.00 0.00 9 990.2
20260906075702 71 77 0.9 1.7 0.00 0.00 0.00 9 990.2
20260906075202 71 95 0.9 2.6 0.00 0.00 0.00 9 990.2
20260906074702 71 75 0.9 1.7 0.00 0.00 0.00 9 990.4
20260906074136 71 84 0.0 1.7 0.00 0.00 0.00 9 990.4
20260906073702 71 71 0.9 1.7 0.00 0.00 0.00 9 990.4
20260906073202 71 108 0.0 0.9 0.00 0.00 0.00 9 990.4
20260906072702 71 103 0.0 0.9 0.00 0.00 0.00 9 990.4
20260906072137 71 90 0.0 0.9 0.00 0.00 0.00 9 990.4
20260906071702 71 52 0.0 0.9 0.00 0.00 0.00 9 990.4
20260906071136 71 66 0.0 0.9 0.00 0.00 0.00 9 990.5
20260906070702 71 45 0.0 0.9 0.00 0.00 0.00 9 990.6
20260906070202 72 26 0.0 0.9 0.00 0.00 0.00 9 990.6
20260906065702 72 30 0.0 0.9 0.00 0.00 0.00 9 990.7
20260906065202 72 37 0.9 2.6 0.00 0.00 0.00 9 990.7
20260906064702 71 19 0.0 0.9 0.00 0.00 0.00 9 990.9
20260906064136 71 78 0.0 1.7 0.00 0.00 0.00 9 990.9
20260906063702 71 67 0.0 0.9 0.00 0.00 0.00 9 990.8
20260906063202 71 26 0.0 0.9 0.00 0.00 0.00 9 990.7
20260906062702 71 61 0.9 2.6 0.00 0.00 0.00 9 990.7
20260906062202 71 42 1.7 2.6 0.00 0.00 0.00 9 990.7
20260906061702 71 22 0.9 2.6 0.00 0.00 0.00 9 990.7
20260906061202 71 42 0.9 1.7 0.00 0.00 0.00 9 990.6
20260906060702 72 41 0.9 1.7 0.00 0.00 0.00 9 990.6
20260906060202 72 67 0.0 1.7 0.00 0.00 0.00 9 990.6
20260906055702 72 93 0.9 2.6 0.00 0.00 0.00 9 990.4
20260906055202 72 86 0.9 1.7 0.00 0.00 0.00 9 990.4
20260906054702 71 87 0.9 1.7 0.00 0.00 0.00 9 990.4
20260906054136 71 84 0.9 1.7 0.00 0.00 0.00 9 990.4
20260906053703 71 85 0.0 2.6 0.00 0.00 0.00 9 990.3
20260906053135 71 91 0.9 2.6 0.00 0.00 0.00 9 990.2
20260906052703 71 96 0.9 1.7 0.00 0.00 0.00 9 990.2
20260906052135 71 100 0.0 1.7 0.00 0.00 0.00 9 990.2
20260906051703 71 83 0.9 0.9 0.00 0.00 0.00 9 990.2
20260906051203 71 97 0.9 0.9 0.00 0.00 0.00 9 990.2
20260906050703 71 106 0.9 2.6 0.00 0.00 0.00 9 990.2
20260906050203 71 78 0.9 2.6 0.00 0.00 0.00 9 990.2
20260905142819 76 0 0.0 0.0 0.00 0.00 0.00 9 987.9
20260905141050 76 0 0.0 0.0 0.00 0.00 0.00 9 987.9
20260905140946 76 0 0.0 0.0 0.00 0.00 0.00 9 987.9
20260905135739 76 0 0.0 0.0 0.00 0.00 0.00 9 987.9
20260905135243 76 0 0.0 0.0 0.00 0.00 0.00 9 987.9
20260905134949 76 0 0.0 0.0 0.00 0.00 0.00 9 987.9
20260905134427 76 0 0.0 0.0 0.00 0.00 0.00 9 987.9
20260905133942 76 0 0.0 0.0 0.00 0.00 0.00 9 987.9
20260905133215 76 0 0.0 0.0 0.00 0.00 0.00 9 987.9
20260905133017 76 0 0.0 0.0 0.00 0.00 0.00 9 987.9
20260905132210 76 0 0.0 0.0 0.00 0.00 0.00 9 987.9
20260905131725 76 0 0.0 0.0 0.00 0.00 0.00 9 987.9
20260905131213 76 0 0.0 0.0 0.00 0.00 0.00 9 987.9
20260905130723 76 0 0.0 0.0 0.00 0.00 0.00 9 987.9
20260905130421 76 0 0.0 0.0 0.00 0.00 0.00 9 987.9
20260905125619 76 0 0.0 0.0 0.00 0.00 0.00 9 987.9
20260905125152 76 0 0.0 0.0 0.00 0.00 0.00 9 987.9
20260905124654 76 0 0.0 0.0 0.00 0.00 0.00 9 987.9
20260905124151 76 0 0.0 0.0 0.00 0.00 0.00 9 987.9
20260905123711 76 0 0.0 0.0 0.00 0.00 0.00 9 987.9
20260905123247 76 0 0.0 0.0 0.00 0.00 0.00 9 987.9
20260905122919 76 0 0.0 0.0 0.00 0.00 0.00 9 987.9
20260905122834 76 0 0.0 0.0 0.00 0.00 0.00 9 987.9
20260905122750 76 0 0.0 0.0 0.00 0.00 0.00 9 987.9
20260905122704 76 0 0.0 0.0 0.00 0.00 0.00 9 987.9
20260905122617 76 0 0.0 0.0 0.00 0.00 0.00 9 987.9
20260905122153 76 0 0.0 0.0 0.00 0.00 0.00 9 987.9
20260905122103 76 0 0.0 0.0 0.00 0.00 0.00 9 987.9
20260905121614 76 0 0.0 0.0 0.00 0.00 0.00 9 987.9
20260905121540 76 0 0.0 0.0 0.00 0.00 0.00 9 987.9
20260905121458 76 0 0.0 0.0 0.00 0.00 0.00 9 987.9
20260905120757 76 0 0.0 0.0 0.00 0.00 0.00 9 987.9